Tracking 22881 objects as of 20-Apr-2021
HD Live streaming from Space Station
objects crossing your sky now

STARLINK-2258

Track STARLINK-2258 now!
10-day predictions
STARLINK-2258 is classified as:


NORAD ID: 47860
Int'l Code: 2021-021A
Perigee: 356.1 km
Apogee: 357.6 km
Inclination: 53.1 °
Period: 91.5 minutes
Semi major axis: 6727 km
RCS: Unknown
Launch date: March 14, 2021
Source: United States (US)
Launch site: AIR FORCE EASTERN TEST RANGE (AFETR)
aabbcc
Your satellite tracking list
Your tracking list is empty




NASA's NSSDC Master Catalog

Two Line Element Set (TLE):
1 47860U 21021A   21109.83334491  .00045742  00000-0  32838-3 0  9998
2 47860  53.0512  36.8841 0001131  84.9074 237.8297 15.73208576  6223
Source of the keplerian elements: AFSPC